Theta_e
310 320 325 330 335 332 335 342 341 340 339 334 333 334 333 332 333 334 333 338 338 332 336 326 321 320 318 314 316 318 318 318 318 318 319 319 319 319 321 321 322 322 329 331 332 333 333 333 331
321 321 328 335 335 341 340 343 342 339 336 335 335 333 331 331 330 329 334 337 336 332 336 337 322 321 321 314 316 318 319 319 319 320 321 324 325 330 331 331 331 331 331 332 332 333 334 335 335
322 327 336 341 344 343 341 341 340 336 334 334 333 329 329 331 329 330 336 337 336 333 335 339 323 321 323 315 316 319 319 320 320 322 324 326 329 331 333 335 336 335 333 332 331 332 333 336 336
324 331 334 339 339 339 342 339 338 336 334 332 331 332 329 328 329 330 336 337 335 334 335 338 326 320 324 319 317 319 320 321 322 324 325 328 333 334 333 336 337 336 334 333 333 332 334 337 334
328 332 332 336 337 337 338 338 335 336 334 333 330 333 332 329 328 329 335 336 334 334 333 338 330 322 324 323 318 319 320 321 323 324 325 328 333 335 338 337 337 336 335 335 334 333 334 335 334
332 332 335 336 335 335 335 333 333 333 334 333 330 330 331 328 329 329 333 336 334 333 334 338 335 323 323 324 320 319 321 322 323 324 326 327 331 336 336 337 336 336 335 335 335 334 333 332 332
331 332 331 333 333 333 332 332 333 333 333 333 331 331 332 332 330 330 332 334 336 334 335 338 341 329 323 325 323 320 321 323 324 325 327 328 330 336 335 334 335 333 332 333 333 333 333 333 333
330 331 333 332 332 332 331 331 331 332 333 331 330 333 333 334 330 330 332 332 335 335 335 335 340 340 340 339 328 323 322 325 327 328 329 329 333 336 333 331 328 329 331 331 331 332 332 332 332
331 333 333 332 331 331 331 331 331 331 331 330 331 331 331 330 330 331 332 332 333 333 335 334 337 338 340 339 339 331 327 329 331 331 330 330 334 332 333 331 330 329 329 330 329 329 330 331 329
333 333 332 331 331 331 331 330 330 331 332 331 330 330 330 330 332 332 332 331 333 333 333 334 337 338 339 337 338 343 339 338 336 336 337 336 334 333 332 331 330 329 327 329 327 329 330 330 331
333 334 332 332 331 331 331 331 330 331 332 332 331 330 330 330 330 331 332 332 331 331 333 333 338 339 339 337 339 340 339 337 337 338 336 334 333 332 332 332 332 332 331 329 328 328 328 327 329
333 332 332 332 331 331 332 332 331 331 331 330 329 328 328 330 330 329 328 332 332 330 331 334 335 340 341 338 338 338 336 335 334 332 333 334 334 333 333 332 332 331 330 329 329 327 328 328 328
329 330 330 330 331 332 331 332 332 331 329 329 327 326 327 327 327 325 326 328 332 330 331 334 336 340 342 341 338 336 333 330 330 330 331 333 332 332 333 332 332 331 329 329 329 327 327 328 328
327 327 327 329 331 331 331 331 330 329 327 326 325 325 325 325 326 326 327 330 332 331 331 333 336 340 341 341 338 335 333 330 331 329 331 333 333 332 333 332 332 331 330 330 330 327 327 327 328
326 327 327 327 327 328 328 328 327 325 324 324 324 325 325 325 325 328 329 330 331 332 332 333 336 339 341 339 337 333 331 331 329 330 333 334 334 333 333 332 332 331 331 331 331 328 328 328 328
324 326 327 327 326 325 325 326 326 325 325 325 326 326 326 325 327 326 327 329 331 332 331 332 333 337 339 336 334 331 331 331 330 332 333 334 334 334 333 332 332 330 331 331 331 328 328 328 329
325 327 328 327 326 324 324 326 326 325 325 326 326 327 326 325 327 327 328 330 331 332 332 331 331 335 337 335 333 333 333 331 331 333 333 333 334 334 333 332 331 333 330 330 329 328 328 328 329
326 327 327 329 328 322 323 324 325 324 324 327 327 327 326 326 327 327 330 329 330 331 331 331 331 333 335 334 333 332 331 330 332 333 333 334 334 333 332 332 332 331 329 330 329 328 329 328 328
325 327 328 326 326 325 325 326 326 327 327 328 328 328 327 327 330 329 330 329 330 330 331 331 332 334 333 333 332 331 330 331 333 333 334 334 333 333 331 332 331 330 330 329 328 328 329 328 329
321 324 326 326 326 326 324 326 327 328 328 328 328 327 327 328 331 331 331 331 331 331 332 332 333 335 333 332 331 330 331 333 333 333 333 333 333 332 333 331 331 329 328 328 328 328 328 328 329
320 321 323 324 325 324 325 325 327 328 328 328 327 326 326 326 332 333 332 332 332 332 333 333 334 335 333 333 332 334 334 332 332 333 333 333 333 332 332 331 330 326 328 328 329 329 328 329 329
321 320 320 321 322 323 323 330 329 329 330 329 328 327 326 329 331 333 334 334 333 333 333 334 334 334 334 333 333 333 331 331 331 331 332 332 332 331 331 331 330 329 329 329 329 328 328 329 329
319 320 320 320 322 324 324 327 329 329 330 329 328 327 326 331 331 334 334 333 332 332 333 334 334 333 334 334 333 333 331 332 332 331 332 333 333 331 331 330 330 329 330 330 328 328 329 329 331
317 319 321 322 323 327 325 327 330 331 331 330 329 325 325 334 333 334 333 332 332 332 333 333 333 334 334 335 335 333 333 332 332 332 333 333 332 332 331 330 330 330 330 329 328 328 329 330 331
317 320 324 326 327 328 326 329 330 329 327 329 326 325 332 334 335 335 334 334 332 332 332 332 334 334 335 334 334 333 333 333 334 333 332 333 333 332 330 330 329 330 330 329 328 329 329 326 330
319 322 324 326 330 330 328 330 330 325 327 327 325 325 333 334 335 335 334 334 332 332 332 332 333 333 333 333 333 333 334 333 332 333 333 332 332 331 331 330 330 330 330 330 330 331 331 332 331
320 323 322 327 328 327 329 328 325 324 324 324 324 324 332 334 335 335 334 333 332 332 332 332 332 331 332 333 333 334 334 334 333 333 333 333 332 330 330 330 330 330 330 330 331 331 331 332 330
320 321 324 325 331 331 327 325 326 325 326 326 330 329 331 335 335 334 334 333 332 332 333 332 330 331 332 333 332 333 334 333 332 333 332 332 332 330 330 330 330 330 330 330 331 331 331 332 330
319 322 323 325 325 329 327 325 324 325 326 330 331 332 335 335 335 334 334 332 332 332 332 330 330 332 332 332 332 333 333 332 332 333 332 333 332 331 329 330 330 330 331 330 331 331 331 331 332
318 320 323 324 326 323 323 322 327 328 331 329 331 335 335 334 334 333 333 332 332 332 330 329 330 330 331 331 331 332 333 332 332 332 332 332 332 331 329 330 330 330 330 331 331 330 330 330 331
Wind_Speed
12 11 8 6 5 5 11 7 3 6 7 1 4 5 6 10 8 6 4 14 12 23 24 31 29 26 23 21 19 17 15 12 10 9 9 9 9 9 9 8 8 8 6 5 4 5 5 4 5
14 11 7 3 7 9 9 4 9 2 4 6 6 10 9 11 6 4 6 17 14 23 24 27 31 27 25 23 21 19 16 13 11 10 10 10 10 10 10 10 9 9 9 9 9 8 7 6 5
13 8 6 5 8 10 2 10 5 2 2 2 4 4 1 3 2 2 1 20 17 23 23 26 30 30 27 25 22 20 18 15 13 12 12 12 12 12 13 12 12 11 12 12 12 12 10 9 7
12 7 5 9 11 6 7 6 3 5 5 2 3 6 4 4 1 1 6 20 17 21 23 24 29 32 29 26 24 22 19 17 15 14 13 13 13 14 15 14 14 14 14 15 14 14 14 12 11
10 5 9 11 13 8 7 9 7 9 4 5 1 4 3 3 3 2 7 18 17 20 23 22 28 32 32 29 26 24 21 18 17 15 14 13 13 14 16 15 15 15 17 19 15 15 16 14 13
8 5 10 12 14 8 8 9 9 12 8 4 4 6 2 5 5 4 7 15 16 18 23 21 26 32 33 31 29 26 23 21 19 17 16 14 13 16 16 15 15 14 14 16 16 17 17 16 15
15 9 14 15 12 10 12 6 10 6 6 5 5 9 3 3 10 6 6 11 16 16 20 22 21 31 35 33 30 27 24 22 20 18 17 16 14 15 15 14 14 13 13 14 16 16 16 16 16
10 9 18 13 13 12 1 7 1 4 3 2 4 7 7 10 9 8 7 11 18 19 20 22 21 25 27 25 30 27 24 22 20 18 18 18 16 15 15 15 15 14 12 13 14 15 16 17 17
13 10 14 19 15 12 6 10 5 3 10 12 9 12 12 13 11 11 9 12 17 22 23 23 23 24 25 24 22 27 25 22 20 18 18 17 16 15 14 15 17 18 14 13 14 14 14 15 19
15 15 22 21 14 16 15 10 11 9 13 17 17 15 12 13 15 15 15 15 17 24 24 25 24 24 23 22 21 19 20 18 17 16 14 14 15 15 15 15 15 18 17 15 15 14 14 15 15
21 25 21 23 19 19 19 20 17 17 15 21 19 18 17 19 20 20 20 21 20 21 28 26 25 24 24 22 20 18 18 16 15 15 14 14 14 14 14 14 14 13 12 13 12 12 12 14 13
29 25 23 25 25 19 19 23 21 19 19 23 21 19 21 23 21 20 23 24 20 19 26 27 27 25 24 21 21 19 17 15 14 13 13 13 13 13 14 15 14 14 15 14 12 12 11 12 14
30 25 25 22 25 23 21 23 28 25 21 24 20 20 21 21 24 30 30 25 22 20 21 26 27 26 24 23 20 19 18 15 13 12 12 13 13 13 13 15 15 16 16 15 13 11 12 12 12
25 27 29 27 25 22 23 26 25 22 23 23 21 21 21 21 22 25 25 23 20 19 19 24 28 27 26 25 22 20 16 15 12 12 12 12 13 13 14 14 16 17 17 16 13 11 11 11 13
25 25 24 22 22 25 21 26 26 21 23 22 18 19 20 20 23 19 22 23 21 16 17 25 28 28 26 23 20 17 14 13 12 12 11 12 13 15 16 16 16 17 16 16 15 12 12 13 13
21 25 24 25 22 22 18 28 23 18 20 18 17 18 20 22 21 22 26 26 19 16 18 23 26 29 28 25 22 17 14 12 12 11 11 12 15 16 16 16 16 17 15 15 15 14 11 13 11
25 26 32 25 21 18 21 32 23 17 17 15 17 20 21 21 21 21 22 20 17 14 17 22 25 27 25 20 19 16 13 12 11 10 11 13 15 16 17 15 16 13 14 14 14 14 11 11 9
25 26 27 28 21 15 24 30 21 20 19 21 18 22 19 21 23 20 17 16 9 10 16 19 23 24 22 21 17 13 12 11 10 10 12 13 14 16 15 14 13 14 13 13 13 11 11 10 11
26 30 30 23 22 21 27 29 23 19 18 23 21 21 22 21 18 13 10 5 5 9 14 18 21 22 23 20 17 14 13 10 9 10 11 13 14 14 14 13 12 12 12 13 12 13 12 11 11
29 29 30 24 23 23 24 29 26 24 22 24 22 23 20 20 15 8 4 4 8 12 15 19 21 23 21 16 12 9 9 7 7 7 9 11 12 12 12 13 12 12 11 12 13 13 10 9 14
31 30 25 27 20 22 24 29 31 26 26 23 18 18 23 21 16 5 5 7 11 14 18 21 22 22 17 14 12 8 6 5 6 7 7 8 8 10 11 10 10 11 13 12 14 12 12 12 14
31 25 25 25 21 23 22 23 28 22 22 23 23 20 20 15 8 5 7 9 13 16 19 22 22 19 15 13 10 8 5 5 3 5 5 7 10 9 7 8 11 12 12 12 10 10 11 11 13
33 22 23 24 23 25 28 19 23 19 21 25 20 19 18 9 6 9 9 12 15 20 23 22 20 16 14 11 9 8 6 4 4 4 5 8 7 5 6 7 10 11 10 9 8 9 10 9 9
22 17 18 18 17 21 24 21 24 24 27 25 22 15 15 8 7 9 12 17 20 22 22 20 19 15 14 12 9 6 5 4 4 4 7 6 4 6 7 8 8 8 7 7 9 11 9 8 6
27 21 11 13 14 17 19 19 21 24 17 25 18 9 9 9 10 13 16 16 22 23 21 19 17 16 14 11 8 6 5 3 4 6 3 3 3 7 8 7 7 7 7 8 9 10 8 7 8
30 27 14 19 15 15 20 11 14 10 22 25 22 12 9 11 12 15 17 17 22 22 21 18 17 15 13 11 7 6 4 4 4 3 2 0 3 8 8 7 7 7 7 9 9 9 7 7 8
29 24 24 11 10 7 13 14 16 17 21 16 15 16 13 10 13 16 18 19 22 21 19 17 15 14 13 11 7 6 5 3 2 2 1 3 5 8 7 8 7 8 8 8 8 6 7 6 7
28 24 21 15 18 16 12 10 8 8 11 13 13 14 13 13 15 17 17 18 20 20 18 16 14 14 13 11 8 6 4 2 1 2 2 4 6 9 8 7 7 8 8 9 9 7 7 8 9
18 23 19 18 13 14 7 8 9 17 10 12 12 13 14 16 17 18 17 20 21 20 18 16 14 14 13 10 8 6 4 2 1 1 3 4 8 10 9 8 7 8 8 8 7 7 8 8 7
27 21 26 13 20 11 6 4 1 7 2 10 7 10 15 17 18 18 18 20 21 20 18 16 15 14 13 10 8 6 4 2 0 3 3 4 8 10 10 9 7 7 7 6 6 6 7 8 8
Wind_Direction
160 157 168 204 226 236 234 187 38 173 195 271 293 245 260 312 310 341 117 166 163 169 177 187 192 191 191 194 199 201 201 204 207 213 217 222 225 228 233 237 248 260 270 273 259 257 256 247 249
161 166 204 227 252 224 195 155 192 170 334 296 255 249 250 269 269 275 197 179 167 172 177 184 195 196 196 200 205 208 209 213 219 225 231 235 241 243 243 245 251 261 273 274 273 268 255 250 250
171 201 246 231 238 253 229 186 134 152 310 240 221 263 303 250 226 297 90 166 166 177 181 188 198 200 201 205 209 214 215 221 226 231 237 241 244 248 250 248 251 254 262 267 272 272 264 252 248
179 199 234 245 233 235 258 174 194 256 186 226 317 250 188 287 338 244 166 169 173 182 187 195 203 202 205 209 212 217 220 226 231 233 241 247 247 250 255 252 255 255 253 256 261 266 269 254 259
211 246 246 239 246 247 227 263 288 261 256 272 308 243 267 96 257 261 187 186 184 187 192 199 207 204 207 212 215 219 222 229 235 240 246 251 255 252 253 255 259 262 263 259 252 259 265 257 254
206 266 239 238 237 234 245 253 257 256 238 234 230 269 264 64 14 329 227 208 202 193 194 199 210 207 210 215 218 221 222 226 234 241 246 253 259 256 257 256 264 267 272 272 269 257 258 261 259
246 217 251 264 273 251 254 236 221 236 209 201 330 266 300 79 11 345 240 221 217 210 204 202 203 208 213 218 221 223 227 228 233 239 243 248 255 255 255 259 262 267 271 270 269 268 265 264 259
238 256 255 248 259 267 162 219 313 238 286 348 268 260 251 1 350 338 274 248 219 215 213 210 206 205 208 213 223 227 229 232 237 243 249 252 255 255 256 258 269 273 273 272 270 267 264 264 262
227 235 246 245 247 246 168 250 157 302 276 286 259 270 286 314 312 310 289 271 239 225 216 215 213 207 206 208 215 225 230 233 239 249 255 258 259 261 256 258 257 265 280 276 276 269 263 261 258
218 227 242 253 263 261 270 259 280 278 278 280 274 243 247 266 285 284 278 266 248 239 226 218 217 214 206 205 208 211 218 228 237 244 249 255 257 260 258 260 261 267 277 272 275 266 263 261 252
229 246 241 245 250 263 288 279 277 274 267 268 290 308 293 285 281 279 272 272 275 248 231 221 216 210 208 202 203 208 212 222 233 240 246 252 256 260 261 266 267 266 270 269 266 270 261 251 247
242 249 244 261 261 256 262 275 278 267 272 277 291 294 292 291 287 280 272 267 271 257 236 221 216 208 206 206 202 206 209 217 225 242 242 243 249 255 259 263 264 265 264 261 264 265 262 259 251
243 249 252 250 264 271 264 265 269 275 280 278 292 288 283 281 279 278 273 269 268 261 239 219 213 208 201 202 202 204 207 217 228 236 240 238 247 254 258 259 259 258 256 252 250 253 261 260 251
250 249 248 255 255 260 262 263 269 271 274 280 286 289 291 289 285 280 274 265 266 258 237 215 208 204 196 196 197 198 200 214 223 232 237 236 241 249 255 257 257 255 251 251 250 245 248 255 253
254 253 254 245 250 253 264 264 255 266 268 273 278 287 286 288 285 279 273 267 270 263 236 210 202 200 194 190 192 197 204 213 223 231 233 236 241 248 251 258 257 254 252 248 242 239 238 247 244
242 239 246 233 228 243 239 265 264 271 271 275 284 289 291 290 284 282 271 269 267 255 225 199 201 197 188 184 185 193 202 216 227 231 239 244 247 246 249 253 252 251 245 240 234 236 234 242 236
226 234 231 242 237 242 231 257 255 255 272 273 279 292 297 293 285 278 276 264 267 250 207 198 199 192 183 179 178 183 196 214 230 235 243 248 248 246 248 255 254 243 236 230 226 237 236 251 229
222 229 245 257 234 223 241 251 255 257 270 276 286 293 292 290 280 287 283 282 262 206 197 199 191 186 175 168 171 184 199 217 229 239 247 251 251 248 248 249 247 235 229 225 227 232 233 235 213
249 245 247 237 243 244 249 256 257 261 270 276 286 285 289 289 287 285 287 277 189 181 184 186 181 170 166 169 176 187 204 215 229 242 250 253 252 248 246 242 242 227 223 225 225 231 226 219 204
239 245 246 249 239 236 251 267 275 270 272 278 280 282 281 284 285 273 260 187 171 163 167 168 166 165 167 168 178 192 200 211 238 248 252 251 247 243 241 238 229 221 221 223 225 224 218 202 192
227 234 240 251 255 252 257 266 267 266 259 273 268 262 273 275 274 248 196 173 159 156 158 160 162 162 162 161 163 164 172 213 227 228 246 241 239 248 248 229 216 208 221 224 223 219 211 199 192
229 219 240 255 253 251 247 268 264 272 269 265 268 276 268 258 240 216 174 167 157 152 154 154 156 157 157 160 169 179 214 227 224 250 254 246 241 245 244 215 212 211 215 224 215 218 206 208 184
236 228 234 241 249 260 249 256 265 261 266 265 261 262 263 241 233 187 174 160 151 152 148 150 150 153 155 159 166 179 204 193 221 255 262 249 245 231 205 204 203 209 219 208 206 189 196 201 199
223 218 226 237 245 245 245 252 259 259 265 268 267 264 237 182 165 160 149 145 147 146 146 148 150 150 155 159 164 175 180 214 251 268 281 261 242 183 192 199 206 204 194 181 179 179 192 204 203
202 194 202 220 225 246 242 249 254 254 264 246 259 254 163 170 156 155 151 150 151 149 149 152 152 155 161 165 162 174 193 202 243 271 280 274 199 166 172 178 178 177 165 157 168 182 190 213 214
193 190 203 215 231 242 218 252 240 256 248 251 255 240 155 171 160 155 154 149 150 154 155 154 158 162 168 168 168 180 180 221 251 254 282 305 153 173 163 177 175 164 161 166 173 183 192 188 197
190 208 212 239 230 270 222 228 271 257 254 248 238 219 184 172 158 154 151 153 155 157 156 156 164 164 170 173 174 177 188 228 304 253 209 166 141 162 164 168 157 161 167 179 189 181 176 163 139
196 194 197 219 234 228 242 240 239 257 235 224 215 198 185 165 160 157 154 155 157 157 152 158 165 166 172 172 176 179 185 190 262 210 160 142 152 165 164 158 148 154 167 183 181 166 167 156 147
191 197 212 209 227 209 228 223 201 238 244 193 191 181 167 167 162 159 156 158 157 155 154 158 166 167 170 171 176 177 179 181 272 167 157 144 161 166 168 158 154 158 155 170 173 160 159 142 141
200 203 199 197 198 247 216 229 290 242 303 209 210 149 158 163 159 159 157 160 156 157 156 164 168 170 170 170 174 174 166 187 192 146 147 149 154 162 165 163 158 160 162 169 157 155 146 145 148